Time,TemperatureF,DewpointF,PressureIn,WindDirection,WindDirectionDegrees,WindSpeedMPH,WindSpeedGustMPH,Humidity,HourlyPrecipIn,Conditions,Clouds,dailyrainin,SoftwareType,DateUTC
2013-02-02 00:02:00,53.1,33.9,29.59,North,0,0.0,0.0,48,0.00,,BKN,0.00,VWS V14.01,2013-02-02 06:02:00,
2013-02-02 00:07:00,53.2,34.1,29.59,North,0,0.0,0.0,48,0.00,,BKN,0.00,VWS V14.01,2013-02-02 06:07:00,
2013-02-02 00:13:00,53.4,33.7,29.59,North,0,0.0,0.0,47,0.00,,BKN,0.00,VWS V14.01,2013-02-02 06:13:00,
2013-02-02 00:18:00,53.8,33.5,29.59,North,0,0.0,0.0,46,0.00,,BKN,0.00,VWS V14.01,2013-02-02 06:18:00,
2013-02-02 00:23:00,53.8,33.5,29.59,North,0,0.0,0.0,46,0.00,,BKN,0.00,VWS V14.01,2013-02-02 06:23:00,
2013-02-02 00:28:00,53.8,33.5,29.59,North,0,0.0,0.0,46,0.00,,BKN,0.00,VWS V14.01,2013-02-02 06:28:00,
2013-02-02 00:33:00,53.6,33.3,29.59,North,0,0.0,0.0,46,0.00,,BKN,0.00,VWS V14.01,2013-02-02 06:33:00,
2013-02-02 00:38:00,53.8,33.5,29.59,North,0,0.0,0.0,46,0.00,,BKN,0.00,VWS V14.01,2013-02-02 06:38:00,
2013-02-02 00:43:00,53.6,33.3,29.59,North,0,0.0,0.0,46,0.00,,BKN,0.00,VWS V14.01,2013-02-02 06:43:00,
2013-02-02 00:48:00,53.2,33.5,29.59,North,0,0.0,0.0,47,0.00,,BKN,0.00,VWS V14.01,2013-02-02 06:48:00,
2013-02-02 00:53:00,53.1,33.4,29.59,North,0,0.0,0.0,47,0.00,,BKN,0.00,VWS V14.01,2013-02-02 06:53:00,
2013-02-02 00:59:00,52.9,33.2,29.59,North,0,0.0,0.0,47,0.00,,BKN,0.00,VWS V14.01,2013-02-02 06:59:00,
2013-02-02 01:04:00,52.7,33.6,29.59,North,0,0.0,0.0,48,0.00,,BKN,0.00,VWS V14.01,2013-02-02 07:04:00,
2013-02-02 01:09:00,52.5,33.4,29.59,North,0,0.0,0.0,48,0.00,,BKN,0.00,VWS V14.01,2013-02-02 07:09:00,
2013-02-02 01:14:00,52.3,33.2,29.59,North,0,0.0,0.0,48,0.00,,BKN,0.00,VWS V14.01,2013-02-02 07:14:00,
2013-02-02 01:19:00,52.2,33.1,29.59,North,0,0.0,0.0,48,0.00,,BKN,0.00,VWS V14.01,2013-02-02 07:19:00,
2013-02-02 01:24:00,52.0,33.4,29.59,North,0,0.0,0.0,49,0.00,,BKN,0.00,VWS V14.01,2013-02-02 07:24:00,
2013-02-02 01:29:00,51.8,33.3,29.59,North,0,0.0,0.0,49,0.00,,BKN,0.00,VWS V14.01,2013-02-02 07:29:00,
2013-02-02 01:34:00,51.6,33.6,29.59,North,0,0.0,0.0,50,0.00,,BKN,0.00,VWS V14.01,2013-02-02 07:34:00,
2013-02-02 01:40:00,51.6,33.6,29.59,North,0,0.0,0.0,50,0.00,,BKN,0.00,VWS V14.01,2013-02-02 07:40:00,
2013-02-02 01:45:00,51.6,33.6,29.59,North,0,0.0,0.0,50,0.00,,BKN,0.00,VWS V14.01,2013-02-02 07:45:00,
2013-02-02 01:50:00,51.6,33.6,29.59,North,0,0.0,0.0,50,0.00,,BKN,0.00,VWS V14.01,2013-02-02 07:50:00,
2013-02-02 01:55:00,51.6,33.6,29.59,North,0,0.0,0.0,50,0.00,,BKN,0.00,VWS V14.01,2013-02-02 07:55:00,
2013-02-02 02:00:00,51.6,33.6,29.59,North,0,0.0,0.0,50,0.00,,BKN,0.00,VWS V14.01,2013-02-02 08:00:00,
2013-02-02 02:06:00,51.4,33.4,29.59,North,0,0.0,0.0,50,0.00,,BKN,0.00,VWS V14.01,2013-02-02 08:06:00,
2013-02-02 02:11:00,51.4,33.4,29.59,North,0,0.0,0.0,50,0.00,,BKN,0.00,VWS V14.01,2013-02-02 08:11:00,
2013-02-02 02:16:00,51.4,33.4,29.59,North,0,0.0,0.0,50,0.00,,BKN,0.00,VWS V14.01,2013-02-02 08:16:00,
2013-02-02 02:21:00,51.4,33.4,29.59,North,0,0.0,0.0,50,0.00,,BKN,0.00,VWS V14.01,2013-02-02 08:21:00,
2013-02-02 02:26:00,51.4,33.4,29.59,North,0,0.0,0.0,50,0.00,,BKN,0.00,VWS V14.01,2013-02-02 08:26:00,
2013-02-02 02:31:00,51.4,33.4,29.59,North,0,0.0,0.0,50,0.00,,BKN,0.00,VWS V14.01,2013-02-02 08:31:00,
2013-02-02 02:36:00,51.4,33.4,29.59,North,0,0.0,0.0,50,0.00,,BKN,0.00,VWS V14.01,2013-02-02 08:36:00,
2013-02-02 02:41:00,51.3,33.3,29.59,North,0,0.0,0.0,50,0.00,,BKN,0.00,VWS V14.01,2013-02-02 08:41:00,
2013-02-02 02:46:00,51.3,33.3,29.59,North,0,0.0,0.0,50,0.00,,BKN,0.00,VWS V14.01,2013-02-02 08:46:00,
2013-02-02 02:52:00,51.3,33.3,29.59,North,0,0.0,0.0,50,0.00,,BKN,0.00,VWS V14.01,2013-02-02 08:52:00,
2013-02-02 02:57:00,51.3,33.3,29.59,North,0,0.0,0.0,50,0.00,,BKN,0.00,VWS V14.01,2013-02-02 08:57:00,
2013-02-02 03:02:00,51.3,33.3,29.59,North,0,0.0,0.0,50,0.00,,BKN,0.00,VWS V14.01,2013-02-02 09:02:00,
2013-02-02 03:07:00,51.1,33.1,29.59,North,0,0.0,0.0,50,0.00,,BKN,0.00,VWS V14.01,2013-02-02 09:07:00,
2013-02-02 03:12:00,50.9,32.9,29.59,North,0,0.0,0.0,50,0.00,,BKN,0.00,VWS V14.01,2013-02-02 09:12:00,
2013-02-02 03:17:00,50.9,33.4,29.59,North,0,0.0,0.0,51,0.00,,BKN,0.00,VWS V14.01,2013-02-02 09:17:00,
2013-02-02 03:22:00,50.7,33.3,29.59,North,0,0.0,0.0,51,0.00,,BKN,0.00,VWS V14.01,2013-02-02 09:22:00,
2013-02-02 03:27:00,50.7,33.3,29.59,North,0,0.0,0.0,51,0.00,,BKN,0.00,VWS V14.01,2013-02-02 09:27:00,
2013-02-02 03:32:00,50.7,33.8,29.59,North,0,0.0,0.0,52,0.00,,BKN,0.00,VWS V14.01,2013-02-02 09:32:00,
2013-02-02 03:37:00,50.7,33.8,29.59,North,0,0.0,0.0,52,0.00,,BKN,0.00,VWS V14.01,2013-02-02 09:37:00,
2013-02-02 03:43:00,50.5,33.6,29.59,North,0,0.0,0.0,52,0.00,,BKN,0.00,VWS V14.01,2013-02-02 09:43:00,
2013-02-02 03:48:00,50.5,34.1,29.59,North,0,0.0,0.0,53,0.00,,BKN,0.00,VWS V14.01,2013-02-02 09:48:00,
2013-02-02 03:53:00,50.4,33.9,29.59,North,0,0.0,0.0,53,0.00,,BKN,0.00,VWS V14.01,2013-02-02 09:53:00,
2013-02-02 03:58:00,50.4,34.4,29.59,North,0,0.0,0.0,54,0.00,,BKN,0.00,VWS V14.01,2013-02-02 09:58:00,
2013-02-02 04:03:00,50.4,34.4,29.59,North,0,0.0,0.0,54,0.00,,BKN,0.00,VWS V14.01,2013-02-02 10:03:00,
2013-02-02 04:08:00,50.2,34.2,29.59,North,0,0.0,0.0,54,0.00,,BKN,0.00,VWS V14.01,2013-02-02 10:08:00,
2013-02-02 04:13:00,50.2,34.7,29.59,North,0,0.0,0.0,55,0.00,,BKN,0.00,VWS V14.01,2013-02-02 10:13:00,
2013-02-02 04:18:00,50.2,35.1,29.59,North,0,0.0,0.0,56,0.00,,BKN,0.00,VWS V14.01,2013-02-02 10:18:00,
2013-02-02 04:23:00,50.2,35.1,29.59,North,0,0.0,0.0,56,0.00,,BKN,0.00,VWS V14.01,2013-02-02 10:23:00,
2013-02-02 04:28:00,50.2,35.1,29.59,North,0,0.0,0.0,56,0.00,,BKN,0.00,VWS V14.01,2013-02-02 10:28:00,
2013-02-02 04:34:00,50.2,35.1,29.59,North,0,0.0,0.0,56,0.00,,BKN,0.00,VWS V14.01,2013-02-02 10:34:00,
2013-02-02 04:39:00,50.2,35.1,29.59,North,0,0.0,0.0,56,0.00,,BKN,0.00,VWS V14.01,2013-02-02 10:39:00,
2013-02-02 04:44:00,50.0,35.4,29.59,North,0,0.0,0.0,57,0.00,,BKN,0.00,VWS V14.01,2013-02-02 10:44:00,
2013-02-02 04:49:00,50.0,35.4,29.59,North,0,0.0,0.0,57,0.00,,BKN,0.00,VWS V14.01,2013-02-02 10:49:00,
2013-02-02 04:54:00,50.0,35.4,29.59,North,0,0.0,0.0,57,0.00,,BKN,0.00,VWS V14.01,2013-02-02 10:54:00,
2013-02-02 04:59:00,49.8,35.7,29.59,North,0,0.0,0.0,58,0.00,,BKN,0.00,VWS V14.01,2013-02-02 10:59:00,
2013-02-02 05:04:00,49.8,36.1,29.59,North,0,0.0,0.0,59,0.00,,BKN,0.00,VWS V14.01,2013-02-02 11:04:00,
2013-02-02 05:09:00,49.8,36.5,29.59,North,0,0.0,0.0,60,0.00,,BKN,0.00,VWS V14.01,2013-02-02 11:09:00,
2013-02-02 05:14:00,49.6,36.3,29.59,North,0,0.0,0.0,60,0.00,,BKN,0.00,VWS V14.01,2013-02-02 11:14:00,
2013-02-02 05:19:00,49.6,36.3,29.59,North,0,0.0,0.0,60,0.00,,BKN,0.00,VWS V14.01,2013-02-02 11:19:00,
2013-02-02 05:25:00,49.6,36.8,29.59,North,0,0.0,0.0,61,0.00,,BKN,0.00,VWS V14.01,2013-02-02 11:25:00,
2013-02-02 05:30:00,49.8,36.9,29.59,North,0,0.0,0.0,61,0.00,,BKN,0.00,VWS V14.01,2013-02-02 11:30:00,
2013-02-02 05:35:00,49.8,36.9,29.59,North,0,0.0,0.0,61,0.00,,BKN,0.00,VWS V14.01,2013-02-02 11:35:00,
2013-02-02 05:40:00,49.6,36.8,29.59,North,0,0.0,0.0,61,0.00,,BKN,0.00,VWS V14.01,2013-02-02 11:40:00,
2013-02-02 05:45:00,49.6,36.8,29.59,North,0,0.0,0.0,61,0.00,,BKN,0.00,VWS V14.01,2013-02-02 11:45:00,
2013-02-02 05:50:00,49.6,37.2,29.59,North,0,0.0,0.0,62,0.00,,BKN,0.00,VWS V14.01,2013-02-02 11:50:00,
2013-02-02 05:55:00,49.6,37.2,29.59,North,0,0.0,0.0,62,0.00,,BKN,0.00,VWS V14.01,2013-02-02 11:55:00,
2013-02-02 06:00:00,49.5,36.6,29.59,North,0,0.0,0.0,61,0.00,,BKN,0.00,VWS V14.01,2013-02-02 12:00:00,
2013-02-02 06:05:00,49.5,37.0,29.59,North,0,0.0,0.0,62,0.00,,BKN,0.00,VWS V14.01,2013-02-02 12:05:00,
2013-02-02 06:10:00,49.3,36.8,29.59,North,0,0.0,0.0,62,0.00,,BKN,0.00,VWS V14.01,2013-02-02 12:10:00,
2013-02-02 06:16:00,49.3,37.2,29.59,North,0,0.0,0.0,63,0.00,,BKN,0.00,VWS V14.01,2013-02-02 12:16:00,
2013-02-02 06:21:00,49.3,37.2,29.59,North,0,0.0,0.0,63,0.00,,BKN,0.00,VWS V14.01,2013-02-02 12:21:00,
2013-02-02 06:26:00,49.3,37.2,29.59,North,0,0.0,0.0,63,0.00,,BKN,0.00,VWS V14.01,2013-02-02 12:26:00,
2013-02-02 06:31:00,49.3,37.6,29.62,North,0,0.0,0.0,64,0.00,,BKN,0.00,VWS V14.01,2013-02-02 12:31:00,
2013-02-02 06:36:00,49.1,37.9,29.62,North,0,0.0,0.0,65,0.00,,BKN,0.00,VWS V14.01,2013-02-02 12:36:00,
2013-02-02 06:41:00,49.1,38.2,29.62,North,0,0.0,0.0,66,0.00,,BKN,0.00,VWS V14.01,2013-02-02 12:41:00,
2013-02-02 06:46:00,49.1,38.2,29.62,North,0,0.0,0.0,66,0.00,,BKN,0.00,VWS V14.01,2013-02-02 12:46:00,
2013-02-02 06:51:00,49.1,38.2,29.62,North,0,0.0,0.0,66,0.00,,BKN,0.00,VWS V14.01,2013-02-02 12:51:00,
2013-02-02 06:56:00,48.9,38.5,29.62,North,0,0.0,0.0,67,0.00,,BKN,0.00,VWS V14.01,2013-02-02 12:56:00,
2013-02-02 07:02:00,49.1,38.2,29.62,North,0,0.0,0.0,66,0.00,,BKN,0.00,VWS V14.01,2013-02-02 13:02:00,
2013-02-02 07:07:00,49.1,38.2,29.62,North,0,0.0,0.0,66,0.00,,BKN,0.00,VWS V14.01,2013-02-02 13:07:00,
2013-02-02 07:12:00,48.9,38.5,29.62,North,0,0.0,0.0,67,0.00,,BKN,0.00,VWS V14.01,2013-02-02 13:12:00,
2013-02-02 07:17:00,48.9,38.5,29.62,North,0,0.0,0.0,67,0.00,,BKN,0.00,VWS V14.01,2013-02-02 13:17:00,
2013-02-02 07:22:00,48.9,38.5,29.62,North,0,0.0,0.0,67,0.00,,BKN,0.00,VWS V14.01,2013-02-02 13:22:00,
2013-02-02 07:27:00,48.9,38.5,29.62,North,0,0.0,0.0,67,0.00,,BKN,0.00,VWS V14.01,2013-02-02 13:27:00,
2013-02-02 07:32:00,48.9,38.1,29.65,North,0,0.0,0.0,66,0.00,,BKN,0.00,VWS V14.01,2013-02-02 13:32:00,
2013-02-02 07:38:00,48.7,37.9,29.65,North,0,0.0,0.0,66,0.00,,BKN,0.00,VWS V14.01,2013-02-02 13:38:00,
2013-02-02 07:43:00,48.7,37.9,29.65,North,0,0.0,0.0,66,0.00,,BKN,0.00,VWS V14.01,2013-02-02 13:43:00,
2013-02-02 07:48:00,48.6,37.3,29.65,North,0,0.0,0.0,65,0.00,,BKN,0.00,VWS V14.01,2013-02-02 13:48:00,
2013-02-02 07:53:00,48.6,37.7,29.65,North,0,0.0,0.0,66,0.00,,BKN,0.00,VWS V14.01,2013-02-02 13:53:00,
2013-02-02 07:58:00,48.6,37.7,29.65,North,0,0.0,0.0,66,0.00,,BKN,0.00,VWS V14.01,2013-02-02 13:58:00,
2013-02-02 08:03:00,48.6,37.7,29.65,North,0,0.0,0.0,66,0.00,,BKN,0.00,VWS V14.01,2013-02-02 14:03:00,
2013-02-02 08:08:00,48.7,37.9,29.65,North,0,0.0,0.0,66,0.00,,BKN,0.00,VWS V14.01,2013-02-02 14:08:00,
2013-02-02 08:14:00,48.9,38.5,29.65,North,0,0.0,0.0,67,0.00,,BKN,0.00,VWS V14.01,2013-02-02 14:14:00,
2013-02-02 08:19:00,49.3,39.2,29.65,North,0,0.0,0.0,68,0.00,,BKN,0.00,VWS V14.01,2013-02-02 14:19:00,
2013-02-02 08:24:00,49.5,39.7,29.65,North,0,0.0,0.0,69,0.00,,BKN,0.00,VWS V14.01,2013-02-02 14:24:00,
2013-02-02 08:29:00,49.8,40.1,29.65,North,0,0.0,0.0,69,0.00,,BKN,0.00,VWS V14.01,2013-02-02 14:29:00,
2013-02-02 08:34:00,50.2,40.0,29.65,North,0,0.0,0.0,68,0.00,,BKN,0.00,VWS V14.01,2013-02-02 14:34:00,
2013-02-02 08:39:00,50.4,40.2,29.65,North,0,0.0,0.0,68,0.00,,BKN,0.00,VWS V14.01,2013-02-02 14:39:00,
2013-02-02 08:45:00,50.5,40.4,29.68,North,0,0.0,0.0,68,0.00,,BKN,0.00,VWS V14.01,2013-02-02 14:45:00,
2013-02-02 08:50:00,51.1,40.9,29.68,North,0,0.0,0.0,68,0.00,,BKN,0.00,VWS V14.01,2013-02-02 14:50:00,
2013-02-02 08:55:00,51.4,41.2,29.68,North,0,0.0,0.0,68,0.00,,BKN,0.00,VWS V14.01,2013-02-02 14:55:00,
2013-02-02 09:00:00,51.6,41.0,29.68,North,0,0.0,0.0,67,0.00,,BKN,0.00,VWS V14.01,2013-02-02 15:00:00,
2013-02-02 09:05:00,52.2,41.2,29.68,North,0,0.0,0.0,66,0.00,,BKN,0.00,VWS V14.01,2013-02-02 15:05:00,
2013-02-02 09:10:00,53.1,42.4,29.68,North,0,0.0,0.0,67,0.00,,BKN,0.00,VWS V14.01,2013-02-02 15:10:00,
2013-02-02 09:15:00,55.4,42.6,29.68,North,0,0.0,0.0,62,0.00,,BKN,0.00,VWS V14.01,2013-02-02 15:15:00,
2013-02-02 09:20:00,55.0,40.5,29.68,North,0,0.0,0.0,58,0.00,,BKN,0.00,VWS V14.01,2013-02-02 15:20:00,
2013-02-02 09:25:00,54.5,40.0,29.68,North,0,0.0,0.0,58,0.00,,BKN,0.00,VWS V14.01,2013-02-02 15:25:00,
2013-02-02 09:30:00,54.7,40.7,29.68,North,0,0.0,0.0,59,0.00,,BKN,0.00,VWS V14.01,2013-02-02 15:30:00,
2013-02-02 09:36:00,54.7,40.7,29.68,North,0,0.0,0.0,59,0.00,,BKN,0.00,VWS V14.01,2013-02-02 15:36:00,
2013-02-02 09:41:00,55.2,41.2,29.68,North,0,0.0,0.0,59,0.00,,BKN,0.00,VWS V14.01,2013-02-02 15:41:00,
2013-02-02 09:46:00,55.6,40.6,29.68,North,0,0.0,0.0,57,0.00,,BKN,0.00,VWS V14.01,2013-02-02 15:46:00,
2013-02-02 09:51:00,55.9,40.5,29.68,North,0,0.0,0.0,56,0.00,,BKN,0.00,VWS V14.01,2013-02-02 15:51:00,
2013-02-02 09:56:00,56.3,40.8,29.68,North,0,0.0,0.0,56,0.00,,BKN,0.00,VWS V14.01,2013-02-02 15:56:00,
2013-02-02 10:01:00,56.5,40.5,29.68,North,0,0.0,0.0,55,0.00,,BKN,0.00,VWS V14.01,2013-02-02 16:01:00,
2013-02-02 10:06:00,56.7,40.2,29.68,North,0,0.0,0.0,54,0.00,,BKN,0.00,VWS V14.01,2013-02-02 16:06:00,
2013-02-02 10:12:00,57.4,40.4,29.68,North,0,0.0,0.0,53,0.00,,BKN,0.00,VWS V14.01,2013-02-02 16:12:00,
2013-02-02 10:17:00,57.9,39.9,29.68,North,0,0.0,0.0,51,0.00,,BKN,0.00,VWS V14.01,2013-02-02 16:17:00,
2013-02-02 10:22:00,58.3,39.2,29.68,North,0,0.0,0.0,49,0.00,,BKN,0.00,VWS V14.01,2013-02-02 16:22:00,
2013-02-02 10:27:00,58.6,39.0,29.68,North,0,0.0,0.0,48,0.00,,BKN,0.00,VWS V14.01,2013-02-02 16:27:00,
2013-02-02 10:32:00,59.0,38.8,29.68,North,0,0.0,0.0,47,0.00,,BKN,0.00,VWS V14.01,2013-02-02 16:32:00,
2013-02-02 10:37:00,59.4,38.6,29.68,North,0,0.0,0.0,46,0.00,,BKN,0.00,VWS V14.01,2013-02-02 16:37:00,
2013-02-02 10:43:00,59.7,38.9,29.68,North,0,0.0,0.0,46,0.00,,BKN,0.00,VWS V14.01,2013-02-02 16:43:00,
2013-02-02 10:48:00,59.7,38.9,29.71,North,0,0.0,0.0,46,0.00,,BKN,0.00,VWS V14.01,2013-02-02 16:48:00,
2013-02-02 10:53:00,59.9,38.5,29.71,North,0,0.0,0.0,45,0.00,,BKN,0.00,VWS V14.01,2013-02-02 16:53:00,
2013-02-02 10:58:00,60.4,39.0,29.71,North,0,0.0,0.0,45,0.00,,BKN,0.00,VWS V14.01,2013-02-02 16:58:00,
2013-02-02 11:03:00,60.6,38.0,29.71,North,0,0.0,0.0,43,0.00,,BKN,0.00,VWS V14.01,2013-02-02 17:03:00,
2013-02-02 11:09:00,60.8,38.2,29.71,North,0,0.0,0.0,43,0.00,,BKN,0.00,VWS V14.01,2013-02-02 17:09:00,
2013-02-02 11:14:00,61.0,38.3,29.71,North,0,0.0,0.0,43,0.00,,BKN,0.00,VWS V14.01,2013-02-02 17:14:00,
2013-02-02 11:19:00,61.2,37.9,29.71,North,0,0.0,0.0,42,0.00,,BKN,0.00,VWS V14.01,2013-02-02 17:19:00,
2013-02-02 11:24:00,61.3,37.5,29.71,North,0,0.0,0.0,41,0.00,,BKN,0.00,VWS V14.01,2013-02-02 17:24:00,
2013-02-02 11:29:00,61.7,37.8,29.71,North,0,0.0,0.0,41,0.00,,BKN,0.00,VWS V14.01,2013-02-02 17:29:00,
2013-02-02 11:34:00,61.9,37.3,29.71,North,0,0.0,0.0,40,0.00,,BKN,0.00,VWS V14.01,2013-02-02 17:34:00,
2013-02-02 11:40:00,62.1,37.5,29.71,North,0,0.0,0.0,40,0.00,,BKN,0.00,VWS V14.01,2013-02-02 17:40:00,
2013-02-02 11:45:00,62.2,37.0,29.71,North,0,0.0,0.0,39,0.00,,BKN,0.00,VWS V14.01,2013-02-02 17:45:00,
2013-02-02 11:50:00,62.2,36.3,29.71,North,0,0.0,0.0,38,0.00,,BKN,0.00,VWS V14.01,2013-02-02 17:50:00,
2013-02-02 11:55:00,62.4,37.2,29.71,North,0,0.0,0.0,39,0.00,,BKN,0.00,VWS V14.01,2013-02-02 17:55:00,
2013-02-02 12:00:00,62.4,35.1,29.71,North,0,0.0,0.0,36,0.00,,BKN,0.00,VWS V14.01,2013-02-02 18:00:00,
2013-02-02 12:05:00,62.2,36.3,29.71,North,0,0.0,0.0,38,0.00,,BKN,0.00,VWS V14.01,2013-02-02 18:05:00,
2013-02-02 12:11:00,62.4,35.8,29.71,North,0,0.0,0.0,37,0.00,,BKN,0.00,VWS V14.01,2013-02-02 18:11:00,
2013-02-02 12:16:00,62.6,36.7,29.71,North,0,0.0,0.0,38,0.00,,BKN,0.00,VWS V14.01,2013-02-02 18:16:00,
2013-02-02 12:21:00,63.0,35.6,29.71,North,0,0.0,0.0,36,0.00,,BKN,0.00,VWS V14.01,2013-02-02 18:21:00,
2013-02-02 12:26:00,62.8,36.8,29.71,North,0,0.0,0.0,38,0.00,,BKN,0.00,VWS V14.01,2013-02-02 18:26:00,
2013-02-02 12:31:00,63.0,35.6,29.68,North,0,0.0,0.0,36,0.00,,BKN,0.00,VWS V14.01,2013-02-02 18:31:00,
2013-02-02 12:37:00,63.1,35.1,29.68,North,0,0.0,0.0,35,0.00,,BKN,0.00,VWS V14.01,2013-02-02 18:37:00,
2013-02-02 12:42:00,63.5,35.4,29.68,North,0,0.0,0.0,35,0.00,,BKN,0.00,VWS V14.01,2013-02-02 18:42:00,
2013-02-02 12:47:00,63.9,35.0,29.68,North,0,0.0,0.0,34,0.00,,BKN,0.00,VWS V14.01,2013-02-02 18:47:00,
2013-02-02 12:52:00,63.9,35.0,29.68,North,0,0.0,0.0,34,0.00,,BKN,0.00,VWS V14.01,2013-02-02 18:52:00,
2013-02-02 12:57:00,63.7,34.8,29.68,North,0,0.0,0.0,34,0.00,,BKN,0.00,VWS V14.01,2013-02-02 18:57:00,
2013-02-02 13:02:00,63.5,35.4,29.68,North,0,0.0,0.0,35,0.00,,BKN,0.00,VWS V14.01,2013-02-02 19:02:00,
2013-02-02 13:08:00,63.9,35.0,29.68,North,0,0.0,0.0,34,0.00,,BKN,0.00,VWS V14.01,2013-02-02 19:08:00,
2013-02-02 13:13:00,63.7,34.8,29.68,North,0,0.0,0.0,34,0.00,,BKN,0.00,VWS V14.01,2013-02-02 19:13:00,
2013-02-02 13:18:00,63.7,34.8,29.68,North,0,0.0,0.0,34,0.00,,BKN,0.00,VWS V14.01,2013-02-02 19:18:00,
2013-02-02 13:23:00,63.9,35.0,29.68,North,0,0.0,0.0,34,0.00,,BKN,0.00,VWS V14.01,2013-02-02 19:23:00,
2013-02-02 13:28:00,63.9,35.0,29.68,North,0,0.0,0.0,34,0.00,,BKN,0.00,VWS V14.01,2013-02-02 19:28:00,
2013-02-02 13:34:00,64.2,35.3,29.68,North,0,0.0,0.0,34,0.00,,BKN,0.00,VWS V14.01,2013-02-02 19:34:00,
2013-02-02 13:39:00,64.4,35.5,29.68,North,0,0.0,0.0,34,0.00,,BKN,0.00,VWS V14.01,2013-02-02 19:39:00,
2013-02-02 13:44:00,64.8,35.8,29.68,North,0,0.0,0.0,34,0.00,,BKN,0.00,VWS V14.01,2013-02-02 19:44:00,
2013-02-02 13:49:00,64.9,35.2,29.68,North,0,0.0,0.0,33,0.00,,BKN,0.00,VWS V14.01,2013-02-02 19:49:00,
2013-02-02 13:54:00,64.8,35.0,29.68,North,0,0.0,0.0,33,0.00,,BKN,0.00,VWS V14.01,2013-02-02 19:54:00,
2013-02-02 14:00:00,64.8,35.0,29.68,North,0,0.0,0.0,33,0.00,,BKN,0.00,VWS V14.01,2013-02-02 20:00:00,
2013-02-02 14:05:00,64.6,34.8,29.68,North,0,0.0,0.0,33,0.00,,BKN,0.00,VWS V14.01,2013-02-02 20:05:00,
2013-02-02 14:10:00,65.1,35.3,29.68,North,0,0.0,0.0,33,0.00,,BKN,0.00,VWS V14.01,2013-02-02 20:10:00,
2013-02-02 14:15:00,65.3,33.9,29.68,North,0,0.0,0.0,31,0.00,,BKN,0.00,VWS V14.01,2013-02-02 20:15:00,
2013-02-02 14:20:00,65.3,33.9,29.68,North,0,0.0,0.0,31,0.00,,BKN,0.00,VWS V14.01,2013-02-02 20:20:00,
2013-02-02 14:25:00,65.3,33.1,29.68,North,0,0.0,0.0,30,0.00,,BKN,0.00,VWS V14.01,2013-02-02 20:25:00,
2013-02-02 14:30:00,65.5,32.4,29.68,North,0,0.0,0.0,29,0.00,,BKN,0.00,VWS V14.01,2013-02-02 20:30:00,
2013-02-02 14:35:00,65.7,33.4,29.68,North,0,0.0,0.0,30,0.00,,BKN,0.00,VWS V14.01,2013-02-02 20:35:00,
2013-02-02 14:40:00,65.8,31.9,29.68,North,0,0.0,0.0,28,0.00,,BKN,0.00,VWS V14.01,2013-02-02 20:40:00,
2013-02-02 14:46:00,66.0,32.0,29.68,North,0,0.0,0.0,28,0.00,,BKN,0.00,VWS V14.01,2013-02-02 20:46:00,
2013-02-02 14:51:00,66.2,31.3,29.68,North,0,0.0,0.0,27,0.00,,BKN,0.00,VWS V14.01,2013-02-02 20:51:00,
2013-02-02 14:56:00,66.2,31.3,29.68,North,0,0.0,0.0,27,0.00,,BKN,0.00,VWS V14.01,2013-02-02 20:56:00,
2013-02-02 15:01:00,66.2,30.3,29.68,North,0,0.0,0.0,26,0.00,,BKN,0.00,VWS V14.01,2013-02-02 21:01:00,
2013-02-02 15:06:00,66.0,31.1,29.68,North,0,0.0,0.0,27,0.00,,BKN,0.00,VWS V14.01,2013-02-02 21:06:00,
2013-02-02 15:11:00,66.2,30.3,29.68,North,0,0.0,0.0,26,0.00,,BKN,0.00,VWS V14.01,2013-02-02 21:11:00,
2013-02-02 15:17:00,66.4,29.5,29.68,North,0,0.0,0.0,25,0.00,,BKN,0.00,VWS V14.01,2013-02-02 21:17:00,
2013-02-02 15:22:00,66.2,29.4,29.68,North,0,0.0,0.0,25,0.00,,BKN,0.00,VWS V14.01,2013-02-02 21:22:00,
2013-02-02 15:27:00,66.2,29.4,29.68,North,0,0.0,0.0,25,0.00,,BKN,0.00,VWS V14.01,2013-02-02 21:27:00,
2013-02-02 15:32:00,66.4,29.5,29.68,North,0,0.0,0.0,25,0.00,,BKN,0.00,VWS V14.01,2013-02-02 21:32:00,
2013-02-02 15:37:00,66.4,29.5,29.68,North,0,0.0,0.0,25,0.00,,BKN,0.00,VWS V14.01,2013-02-02 21:37:00,
2013-02-02 15:42:00,66.4,29.5,29.68,North,0,0.0,0.0,25,0.00,,BKN,0.00,VWS V14.01,2013-02-02 21:42:00,
2013-02-02 15:48:00,66.4,29.5,29.68,North,0,0.0,0.0,25,0.00,,BKN,0.00,VWS V14.01,2013-02-02 21:48:00,
2013-02-02 15:53:00,66.4,29.5,29.68,North,0,0.0,0.0,25,0.00,,BKN,0.00,VWS V14.01,2013-02-02 21:53:00,
2013-02-02 15:58:00,66.6,28.7,29.68,North,0,0.0,0.0,24,0.00,,BKN,0.00,VWS V14.01,2013-02-02 21:58:00,
2013-02-02 16:03:00,66.6,28.7,29.68,North,0,0.0,0.0,24,0.00,,BKN,0.00,VWS V14.01,2013-02-02 22:03:00,
2013-02-02 16:08:00,66.4,28.5,29.68,North,0,0.0,0.0,24,0.00,,BKN,0.00,VWS V14.01,2013-02-02 22:08:00,
2013-02-02 16:13:00,66.4,28.5,29.68,North,0,0.0,0.0,24,0.00,,BKN,0.00,VWS V14.01,2013-02-02 22:13:00,
2013-02-02 16:18:00,66.2,28.4,29.68,North,0,0.0,0.0,24,0.00,,BKN,0.00,VWS V14.01,2013-02-02 22:18:00,
2013-02-02 16:24:00,66.2,28.4,29.68,North,0,0.0,0.0,24,0.00,,BKN,0.00,VWS V14.01,2013-02-02 22:24:00,
2013-02-02 16:29:00,66.0,28.2,29.68,North,0,0.0,0.0,24,0.00,,BKN,0.00,VWS V14.01,2013-02-02 22:29:00,
2013-02-02 16:34:00,65.8,28.1,29.68,North,0,0.0,0.0,24,0.00,,BKN,0.00,VWS V14.01,2013-02-02 22:34:00,
2013-02-02 16:39:00,65.8,28.1,29.68,North,0,0.0,0.0,24,0.00,,BKN,0.00,VWS V14.01,2013-02-02 22:39:00,
2013-02-02 16:44:00,65.7,27.9,29.68,North,0,0.0,0.0,24,0.00,,BKN,0.00,VWS V14.01,2013-02-02 22:44:00,
2013-02-02 16:50:00,65.7,27.9,29.68,North,0,0.0,0.0,24,0.00,,BKN,0.00,VWS V14.01,2013-02-02 22:50:00,
2013-02-02 16:55:00,65.5,27.8,29.68,North,0,0.0,0.0,24,0.00,,BKN,0.00,VWS V14.01,2013-02-02 22:55:00,
2013-02-02 17:00:00,65.3,27.6,29.68,North,0,0.0,0.0,24,0.00,,BKN,0.00,VWS V14.01,2013-02-02 23:00:00,
2013-02-02 17:05:00,65.3,27.6,29.68,North,0,0.0,0.0,24,0.00,,BKN,0.00,VWS V14.01,2013-02-02 23:05:00,
2013-02-02 17:10:00,65.1,27.5,29.68,North,0,0.0,0.0,24,0.00,,BKN,0.00,VWS V14.01,2013-02-02 23:10:00,
2013-02-02 17:15:00,64.8,27.2,29.68,North,0,0.0,0.0,24,0.00,,BKN,0.00,VWS V14.01,2013-02-02 23:15:00,
2013-02-02 17:21:00,64.6,27.0,29.68,North,0,0.0,0.0,24,0.00,,BKN,0.00,VWS V14.01,2013-02-02 23:21:00,
2013-02-02 17:26:00,64.4,26.9,29.68,North,0,0.0,0.0,24,0.00,,BKN,0.00,VWS V14.01,2013-02-02 23:26:00,
2013-02-02 17:31:00,64.2,26.7,29.68,North,0,0.0,0.0,24,0.00,,BKN,0.00,VWS V14.01,2013-02-02 23:31:00,
2013-02-02 17:36:00,64.0,27.5,29.68,North,0,0.0,0.0,25,0.00,,BKN,0.00,VWS V14.01,2013-02-02 23:36:00,
2013-02-02 17:41:00,63.7,27.2,29.68,North,0,0.0,0.0,25,0.00,,BKN,0.00,VWS V14.01,2013-02-02 23:41:00,
2013-02-02 17:47:00,63.5,27.1,29.68,North,0,0.0,0.0,25,0.00,,BKN,0.00,VWS V14.01,2013-02-02 23:47:00,
2013-02-02 17:52:00,63.1,26.8,29.68,North,0,0.0,0.0,25,0.00,,BKN,0.00,VWS V14.01,2013-02-02 23:52:00,
2013-02-02 17:57:00,62.8,26.5,29.68,North,0,0.0,0.0,25,0.00,,BKN,0.00,VWS V14.01,2013-02-02 23:57:00,
2013-02-02 18:02:00,62.2,26.0,29.68,North,0,0.0,0.0,25,0.00,,BKN,0.00,VWS V14.01,2013-02-03 00:02:00,
2013-02-02 18:07:00,61.9,26.6,29.68,North,0,0.0,0.0,26,0.00,,BKN,0.00,VWS V14.01,2013-02-03 00:07:00,
2013-02-02 18:13:00,61.5,26.3,29.68,North,0,0.0,0.0,26,0.00,,BKN,0.00,VWS V14.01,2013-02-03 00:13:00,
2013-02-02 18:18:00,61.0,26.8,29.68,North,0,0.0,0.0,27,0.00,,BKN,0.00,VWS V14.01,2013-02-03 00:18:00,
2013-02-02 18:23:00,60.6,27.4,29.68,North,0,0.0,0.0,28,0.00,,BKN,0.00,VWS V14.01,2013-02-03 00:23:00,
2013-02-02 18:28:00,60.3,27.0,29.68,North,0,0.0,0.0,28,0.00,,BKN,0.00,VWS V14.01,2013-02-03 00:28:00,
2013-02-02 18:33:00,59.9,26.7,29.68,North,0,0.0,0.0,28,0.00,,BKN,0.00,VWS V14.01,2013-02-03 00:33:00,
2013-02-02 18:38:00,59.5,27.3,29.68,North,0,0.0,0.0,29,0.00,,BKN,0.00,VWS V14.01,2013-02-03 00:38:00,
2013-02-02 18:43:00,59.2,27.8,29.68,North,0,0.0,0.0,30,0.00,,BKN,0.00,VWS V14.01,2013-02-03 00:43:00,
2013-02-02 18:48:00,58.8,28.3,29.68,North,0,0.0,0.0,31,0.00,,BKN,0.00,VWS V14.01,2013-02-03 00:48:00,
2013-02-02 18:54:00,58.5,28.0,29.68,North,0,0.0,0.0,31,0.00,,BKN,0.00,VWS V14.01,2013-02-03 00:54:00,
2013-02-02 18:59:00,58.1,28.4,29.68,North,0,0.0,0.0,32,0.00,,BKN,0.00,VWS V14.01,2013-02-03 00:59:00,
2013-02-02 19:04:00,57.9,28.3,29.71,North,0,0.0,0.0,32,0.00,,BKN,0.00,VWS V14.01,2013-02-03 01:04:00,
2013-02-02 19:09:00,57.6,28.7,29.71,North,0,0.0,0.0,33,0.00,,BKN,0.00,VWS V14.01,2013-02-03 01:09:00,
2013-02-02 19:14:00,57.4,29.3,29.71,North,0,0.0,0.0,34,0.00,,BKN,0.00,VWS V14.01,2013-02-03 01:14:00,
2013-02-02 19:19:00,57.2,29.1,29.71,North,0,0.0,0.0,34,0.00,,BKN,0.00,VWS V14.01,2013-02-03 01:19:00,
2013-02-02 19:24:00,56.8,29.5,29.71,North,0,0.0,0.0,35,0.00,,BKN,0.00,VWS V14.01,2013-02-03 01:24:00,
2013-02-02 19:29:00,56.7,29.3,29.71,North,0,0.0,0.0,35,0.00,,BKN,0.00,VWS V14.01,2013-02-03 01:29:00,
2013-02-02 19:35:00,56.3,29.0,29.71,North,0,0.0,0.0,35,0.00,,BKN,0.00,VWS V14.01,2013-02-03 01:35:00,
2013-02-02 19:40:00,56.1,29.5,29.71,North,0,0.0,0.0,36,0.00,,BKN,0.00,VWS V14.01,2013-02-03 01:40:00,
2013-02-02 19:45:00,55.9,29.4,29.71,North,0,0.0,0.0,36,0.00,,BKN,0.00,VWS V14.01,2013-02-03 01:45:00,
2013-02-02 19:50:00,55.8,29.2,29.71,North,0,0.0,0.0,36,0.00,,BKN,0.00,VWS V14.01,2013-02-03 01:50:00,
2013-02-02 19:55:00,55.4,28.9,29.71,North,0,0.0,0.0,36,0.00,,BKN,0.00,VWS V14.01,2013-02-03 01:55:00,
2013-02-02 20:00:00,55.2,29.4,29.71,North,0,0.0,0.0,37,0.00,,BKN,0.00,VWS V14.01,2013-02-03 02:00:00,
2013-02-02 20:05:00,55.2,30.1,29.71,North,0,0.0,0.0,38,0.00,,BKN,0.00,VWS V14.01,2013-02-03 02:05:00,
2013-02-02 20:10:00,55.4,30.9,29.71,North,0,0.0,0.0,39,0.00,,BKN,0.00,VWS V14.01,2013-02-03 02:10:00,
2013-02-02 20:15:00,55.4,31.5,29.71,North,0,0.0,0.0,40,0.00,,BKN,0.00,VWS V14.01,2013-02-03 02:15:00,
2013-02-02 20:20:00,55.2,31.3,29.71,North,0,0.0,0.0,40,0.00,,BKN,0.00,VWS V14.01,2013-02-03 02:20:00,
2013-02-02 20:26:00,55.0,31.2,29.71,North,0,0.0,0.0,40,0.00,,BKN,0.00,VWS V14.01,2013-02-03 02:26:00,
2013-02-02 20:31:00,54.9,31.6,29.74,North,0,0.0,0.0,41,0.00,,BKN,0.00,VWS V14.01,2013-02-03 02:31:00,
2013-02-02 20:36:00,54.9,31.6,29.74,North,0,0.0,0.0,41,0.00,,BKN,0.00,VWS V14.01,2013-02-03 02:36:00,
2013-02-02 20:41:00,54.7,31.5,29.74,North,0,0.0,0.0,41,0.00,,BKN,0.00,VWS V14.01,2013-02-03 02:41:00,
2013-02-02 20:46:00,54.5,30.7,29.74,North,0,0.0,0.0,40,0.00,,BKN,0.00,VWS V14.01,2013-02-03 02:46:00,
2013-02-02 20:51:00,54.3,30.5,29.74,North,0,0.0,0.0,40,0.00,,BKN,0.00,VWS V14.01,2013-02-03 02:51:00,
2013-02-02 20:56:00,54.1,30.4,29.74,North,0,0.0,0.0,40,0.00,,BKN,0.00,VWS V14.01,2013-02-03 02:56:00,
2013-02-02 21:01:00,54.0,30.2,29.74,North,0,0.0,0.0,40,0.00,,BKN,0.00,VWS V14.01,2013-02-03 03:01:00,
2013-02-02 21:06:00,53.8,30.0,29.74,North,0,0.0,0.0,40,0.00,,BKN,0.00,VWS V14.01,2013-02-03 03:06:00,
2013-02-02 21:12:00,53.4,29.7,29.74,North,0,0.0,0.0,40,0.00,,BKN,0.00,VWS V14.01,2013-02-03 03:12:00,
2013-02-02 21:17:00,52.9,29.8,29.74,North,0,0.0,0.0,41,0.00,,BKN,0.00,VWS V14.01,2013-02-03 03:17:00,
2013-02-02 21:22:00,52.3,29.4,29.74,North,0,0.0,0.0,41,0.00,,BKN,0.00,VWS V14.01,2013-02-03 03:22:00,
2013-02-02 21:27:00,52.0,29.0,29.74,North,0,0.0,0.0,41,0.00,,BKN,0.00,VWS V14.01,2013-02-03 03:27:00,
2013-02-02 21:32:00,51.8,28.9,29.74,North,0,0.0,0.0,41,0.00,,BKN,0.00,VWS V14.01,2013-02-03 03:32:00,
2013-02-02 21:37:00,51.6,29.3,29.74,North,0,0.0,0.0,42,0.00,,BKN,0.00,VWS V14.01,2013-02-03 03:37:00,
2013-02-02 21:42:00,51.4,29.1,29.74,North,0,0.0,0.0,42,0.00,,BKN,0.00,VWS V14.01,2013-02-03 03:42:00,
2013-02-02 21:47:00,51.3,29.5,29.74,North,0,0.0,0.0,43,0.00,,BKN,0.00,VWS V14.01,2013-02-03 03:47:00,
2013-02-02 21:52:00,51.1,29.4,29.74,North,0,0.0,0.0,43,0.00,,BKN,0.00,VWS V14.01,2013-02-03 03:52:00,
2013-02-02 21:58:00,50.9,29.2,29.74,North,0,0.0,0.0,43,0.00,,BKN,0.00,VWS V14.01,2013-02-03 03:58:00,
2013-02-02 22:03:00,50.5,29.5,29.77,North,0,0.0,0.0,44,0.00,,BKN,0.00,VWS V14.01,2013-02-03 04:03:00,
2013-02-02 22:08:00,50.4,29.3,29.77,North,0,0.0,0.0,44,0.00,,BKN,0.00,VWS V14.01,2013-02-03 04:08:00,
2013-02-02 22:13:00,50.2,29.7,29.77,North,0,0.0,0.0,45,0.00,,BKN,0.00,VWS V14.01,2013-02-03 04:13:00,
2013-02-02 22:18:00,50.2,29.7,29.77,North,0,0.0,0.0,45,0.00,,BKN,0.00,VWS V14.01,2013-02-03 04:18:00,
2013-02-02 22:23:00,50.0,30.0,29.77,North,0,0.0,0.0,46,0.00,,BKN,0.00,VWS V14.01,2013-02-03 04:23:00,
2013-02-02 22:28:00,49.8,29.9,29.77,North,0,0.0,0.0,46,0.00,,BKN,0.00,VWS V14.01,2013-02-03 04:28:00,
2013-02-02 22:33:00,49.8,29.9,29.77,North,0,0.0,0.0,46,0.00,,BKN,0.00,VWS V14.01,2013-02-03 04:33:00,
2013-02-02 22:38:00,49.6,29.7,29.77,North,0,0.0,0.0,46,0.00,,BKN,0.00,VWS V14.01,2013-02-03 04:38:00,
2013-02-02 22:43:00,49.5,29.6,29.77,North,0,0.0,0.0,46,0.00,,BKN,0.00,VWS V14.01,2013-02-03 04:43:00,
2013-02-02 22:49:00,49.3,29.4,29.77,North,0,0.0,0.0,46,0.00,,BKN,0.00,VWS V14.01,2013-02-03 04:49:00,
2013-02-02 22:54:00,49.3,29.4,29.77,North,0,0.0,0.0,46,0.00,,BKN,0.00,VWS V14.01,2013-02-03 04:54:00,
2013-02-02 22:59:00,49.1,29.2,29.77,North,0,0.0,0.0,46,0.00,,BKN,0.00,VWS V14.01,2013-02-03 04:59:00,
2013-02-02 23:00:00,49.1,29.2,29.77,North,0,0.0,0.0,46,0.00,,BKN,0.00,VWS V14.01,2013-02-03 05:00:00,
2013-02-02 23:01:00,48.9,29.1,29.77,North,0,0.0,0.0,46,0.00,,BKN,0.00,VWS V14.01,2013-02-03 05:01:00,
2013-02-02 23:07:00,48.9,29.6,29.77,North,0,0.0,0.0,47,0.00,,BKN,0.00,VWS V14.01,2013-02-03 05:07:00,
2013-02-02 23:12:00,48.7,29.4,29.77,North,0,0.0,0.0,47,0.00,,BKN,0.00,VWS V14.01,2013-02-03 05:12:00,
2013-02-02 23:17:00,48.6,29.3,29.77,North,0,0.0,0.0,47,0.00,,BKN,0.00,VWS V14.01,2013-02-03 05:17:00,
2013-02-02 23:22:00,48.6,29.3,29.77,North,0,0.0,0.0,47,0.00,,BKN,0.00,VWS V14.01,2013-02-03 05:22:00,
2013-02-02 23:27:00,48.4,29.1,29.77,North,0,0.0,0.0,47,0.00,,BKN,0.00,VWS V14.01,2013-02-03 05:27:00,
2013-02-02 23:32:00,48.2,28.9,29.77,North,0,0.0,0.0,47,0.00,,BKN,0.00,VWS V14.01,2013-02-03 05:32:00,
2013-02-02 23:37:00,48.0,29.3,29.77,North,0,0.0,0.0,48,0.00,,BKN,0.00,VWS V14.01,2013-02-03 05:37:00,
2013-02-02 23:42:00,47.8,29.1,29.77,North,0,0.0,0.0,48,0.00,,BKN,0.00,VWS V14.01,2013-02-03 05:42:00,
2013-02-02 23:47:00,47.7,29.0,29.77,North,0,0.0,0.0,48,0.00,,BKN,0.00,VWS V14.01,2013-02-03 05:47:00,
2013-02-02 23:53:00,47.5,29.3,29.77,North,0,0.0,0.0,49,0.00,,BKN,0.00,VWS V14.01,2013-02-03 05:53:00,
2013-02-02 23:58:00,47.5,29.3,29.77,North,0,0.0,0.0,49,0.00,,BKN,0.00,VWS V14.01,2013-02-03 05:58:00,